| time (UTC) | temp F | wind direction | speed MPH | gust MPH | rain 1hr in | rain 24hr in | rain mn in | humidity % | barometer mb |
| 20260504081720 | 70 | 98 | 0.0 | 0.0 | 0.00 | 0.00 | 0.00 | 38 | 1007.6 |
| 20260504080710 | 70 | 174 | 0.0 | 0.0 | 0.00 | 0.00 | 0.00 | 37 | 1007.7 |
| 20260504050409 | 75 | 253 | 2.0 | 9.0 | 0.00 | 0.00 | 0.00 | 24 | 1007.8 |
| 20260504045409 | 76 | 266 | 1.0 | 7.0 | 0.00 | 0.00 | 0.00 | 24 | 1007.7 |
| 20260504043217 | 77 | 191 | 4.0 | 10.0 | 0.00 | 0.00 | 0.00 | 22 | 1007.7 |
| 20260504042235 | 77 | 224 | 2.0 | 8.0 | 0.00 | 0.00 | 0.00 | 21 | 1007.5 |
| 20260504041252 | 78 | 167 | 4.0 | 18.0 | 0.00 | 0.00 | 0.00 | 20 | 1007.2 |
| 20260504040219 | 78 | 224 | 7.0 | 18.0 | 0.00 | 0.00 | 0.00 | 20 | 1007.1 |
| 20260504035156 | 79 | 246 | 6.0 | 14.0 | 0.00 | 0.00 | 0.00 | 20 | 1006.7 |
| 20260504034208 | 79 | 227 | 4.0 | 14.0 | 0.00 | 0.00 | 0.00 | 19 | 1006.5 |
| 20260504033144 | 79 | 217 | 7.0 | 14.0 | 0.00 | 0.00 | 0.00 | 19 | 1006.1 |
| 20260504032133 | 80 | 253 | 7.0 | 15.0 | 0.00 | 0.00 | 0.00 | 19 | 1006.0 |
| 20260504031144 | 80 | 147 | 6.0 | 15.0 | 0.00 | 0.00 | 0.00 | 19 | 1005.9 |
| 20260504030120 | 80 | 206 | 7.0 | 15.0 | 0.00 | 0.00 | 0.00 | 19 | 1005.7 |
| 20260504021737 | 82 | 217 | 9.0 | 17.0 | 0.00 | 0.00 | 0.00 | 18 | 1005.0 |
| 20260504020751 | 82 | 206 | 7.0 | 17.0 | 0.00 | 0.00 | 0.00 | 18 | 1004.8 |
| 20260504015717 | 83 | 217 | 7.0 | 17.0 | 0.00 | 0.00 | 0.00 | 17 | 1004.5 |
| 20260504014654 | 83 | 188 | 8.0 | 19.0 | 0.00 | 0.00 | 0.00 | 17 | 1004.2 |
| 20260504013633 | 84 | 229 | 9.0 | 19.0 | 0.00 | 0.00 | 0.00 | 16 | 1004.2 |
| 20260504012618 | 85 | 221 | 10.0 | 19.0 | 0.00 | 0.00 | 0.00 | 16 | 1004.1 |
| 20260504011602 | 85 | 278 | 11.0 | 19.0 | 0.00 | 0.00 | 0.00 | 16 | 1004.1 |
| 20260504010626 | 86 | 224 | 11.0 | 19.0 | 0.00 | 0.00 | 0.00 | 15 | 1004.2 |
| 20260504005650 | 87 | 195 | 9.0 | 15.0 | 0.00 | 0.00 | 0.00 | 15 | 1004.0 |
| 20260504003510 | 89 | 233 | 7.0 | 14.0 | 0.00 | 0.00 | 0.00 | 14 | 1004.0 |
| 20260504002435 | 89 | 174 | 4.0 | 11.0 | 0.00 | 0.00 | 0.00 | 14 | 1004.0 |
| 20260504001431 | 89 | 190 | 6.0 | 17.0 | 0.00 | 0.00 | 0.00 | 15 | 1004.1 |
| 20260504000436 | 89 | 220 | 9.0 | 17.0 | 0.00 | 0.00 | 0.00 | 15 | 1004.1 |
| 20260503234241 | 90 | 190 | 7.0 | 18.0 | 0.00 | 0.00 | 0.00 | 14 | 1004.0 |
| 20260503232110 | 89 | 253 | 9.0 | 16.0 | 0.00 | 0.00 | 0.00 | 15 | 1004.5 |
| 20260503225918 | 89 | 190 | 8.0 | 19.0 | 0.00 | 0.00 | 0.00 | 15 | 1004.7 |
| 20260503224942 | 89 | 144 | 7.0 | 19.0 | 0.00 | 0.00 | 0.00 | 14 | 1004.8 |
| 20260503223940 | 89 | 231 | 7.0 | 15.0 | 0.00 | 0.00 | 0.00 | 16 | 1005.1 |
| 20260503222913 | 90 | 190 | 5.0 | 15.0 | 0.00 | 0.00 | 0.00 | 16 | 1005.3 |
| 20260503220733 | 90 | 233 | 6.0 | 19.0 | 0.00 | 0.00 | 0.00 | 16 | 1005.7 |
| 20260503215741 | 90 | 103 | 7.0 | 19.0 | 0.00 | 0.00 | 0.00 | 17 | 1006.0 |
| 20260503214733 | 90 | 203 | 5.0 | 14.0 | 0.00 | 0.00 | 0.00 | 16 | 1006.0 |
| 20260503213713 | 89 | 227 | 9.0 | 18.0 | 0.00 | 0.00 | 0.00 | 19 | 1006.1 |
| 20260503212642 | 89 | 196 | 7.0 | 18.0 | 0.00 | 0.00 | 0.00 | 18 | 1006.4 |
| 20260503211608 | 89 | 217 | 5.0 | 15.0 | 0.00 | 0.00 | 0.00 | 19 | 1006.4 |
| 20260503210627 | 89 | 197 | 6.0 | 15.0 | 0.00 | 0.00 | 0.00 | 19 | 1006.7 |
| 20260503205556 | 90 | 212 | 6.0 | 17.0 | 0.00 | 0.00 | 0.00 | 19 | 1006.9 |
| 20260503204555 | 89 | 226 | 6.0 | 17.0 | 0.00 | 0.00 | 0.00 | 20 | 1007.0 |
| 20260503203612 | 89 | 206 | 6.0 | 15.0 | 0.00 | 0.00 | 0.00 | 18 | 1007.0 |
| 20260503202556 | 89 | 229 | 6.0 | 15.0 | 0.00 | 0.00 | 0.00 | 18 | 1007.1 |
| 20260503201605 | 89 | 152 | 6.0 | 14.0 | 0.00 | 0.00 | 0.00 | 17 | 1007.2 |
| 20260503200611 | 89 | 240 | 4.0 | 14.0 | 0.00 | 0.00 | 0.00 | 18 | 1007.4 |
| 20260503194439 | 89 | 219 | 5.0 | 13.0 | 0.00 | 0.00 | 0.00 | 18 | 1007.7 |
| 20260503193411 | 87 | 211 | 6.0 | 14.0 | 0.00 | 0.00 | 0.00 | 21 | 1007.9 |
| 20260503192408 | 88 | 219 | 6.0 | 14.0 | 0.00 | 0.00 | 0.00 | 20 | 1008.2 |
| 20260503190234 | 87 | 226 | 5.0 | 15.0 | 0.00 | 0.00 | 0.00 | 21 | 1008.4 |
| 20260503185203 | 86 | 166 | 4.0 | 11.0 | 0.00 | 0.00 | 0.00 | 22 | 1008.6 |
| 20260503184211 | 86 | 219 | 4.0 | 5.0 | 0.00 | 0.00 | 0.00 | 22 | 1008.8 |
| 20260503183327 | 86 | 142 | 5.0 | 18.0 | 0.00 | 0.00 | 0.00 | 21 | 1008.9 |
| 20260503182316 | 86 | 49 | 5.0 | 17.0 | 0.00 | 0.00 | 0.00 | 21 | 1009.0 |
| 20260503181334 | 86 | 229 | 3.0 | 16.0 | 0.00 | 0.00 | 0.00 | 21 | 1009.1 |
| 20260503180334 | 85 | 160 | 6.0 | 15.0 | 0.00 | 0.00 | 0.00 | 23 | 1009.4 |
| 20260503174156 | 83 | 176 | 5.0 | 12.0 | 0.00 | 0.00 | 0.00 | 25 | 1009.6 |
| 20260503173139 | 82 | 58 | 6.0 | 13.0 | 0.00 | 0.00 | 0.00 | 26 | 1009.6 |
| 20260503172135 | 82 | 69 | 3.0 | 13.0 | 0.00 | 0.00 | 0.00 | 26 | 1009.8 |
| 20260503171151 | 81 | 78 | 5.0 | 14.0 | 0.00 | 0.00 | 0.00 | 27 | 1009.7 |
| 20260503170215 | 81 | 56 | 5.0 | 16.0 | 0.00 | 0.00 | 0.00 | 27 | 1009.8 |
| 20260503131343 | 75 | 343 | 6.0 | 12.0 | 0.00 | 0.00 | 0.00 | 28 | 1009.3 |